Terminal Aerodrome Forecast
Issued by NWS Atlanta, GA

Home | Current Version | Previous Version | Text Only | Print | Product List | Glossary On
Versions: 1 2 3 4 5 6 7 8 9 10 11 12 13 14 15 16
000
FTUS42 KFFC 211700
TAFCSG
TAF
KCSG 211720Z 2118/2218 34008G15KT P6SM SKC
     FM220000 34003KT P6SM SKC
     FM221500 03007KT P6SM SKC=

USA.gov is the U.S. government's official web portal to all federal, state and local government web resources and services.